FW1349 Weather Reports


Display with metric or nautical units.
time (UTC)temp
F
wind
direction
speed
MPH
gust
MPH
rain 1hr
in
rain 24hr
in
rain mn
in
humidity
%
barometer
mb
20260902002517 82 0.0 0.0 0.00 0.00 0.00 63
20260902001517 83 0.0 1.0 0.00 0.00 0.00 62
20260902000517 83 0.0 1.0 0.00 0.00 0.00 61
20260901235517 83 0.0 2.0 0.00 0.00 0.00 58
20260901234517 83 68 1.0 2.0 0.00 0.00 0.00 58
20260901233558 84 0.0 2.0 0.00 0.00 0.00 57
20260901232517 84 0.0 1.0 0.00 0.00 0.00 57
20260901231517 84 0.0 1.0 0.00 0.00 0.00 57
20260901230538 84 0.0 3.0 0.00 0.00 0.00 55
20260901225517 85 68 1.0 2.0 0.00 0.00 0.00 54
20260901224517 85 68 1.0 2.0 0.00 0.00 0.00 54
20260901223517 86 68 1.0 2.0 0.00 0.00 0.00 53
20260901222537 86 68 1.0 5.0 0.00 0.00 0.00 52
20260901221537 86 0.0 2.0 0.00 0.00 0.00 52
20260901220516 86 68 1.0 3.0 0.00 0.00 0.00 52
20260901215516 86 68 1.0 3.0 0.00 0.00 0.00 53
20260901214517 86 0.0 2.0 0.00 0.00 0.00 54
20260901213517 86 0.0 3.0 0.00 0.00 0.00 54
20260901212516 86 293 1.0 2.0 0.00 0.00 0.00 55
20260901211517 86 0.0 3.0 0.00 0.00 0.00 56
20260901210516 86 248 1.0 2.0 0.00 0.00 0.00 54
20260901205518 87 0.0 1.0 0.00 0.00 0.00 54
20260901204516 87 248 1.0 3.0 0.00 0.00 0.00 53
20260901203516 87 68 1.0 3.0 0.00 0.00 0.00 53
20260901202516 87 225 1.0 3.0 0.00 0.00 0.00 53
20260901201516 87 270 1.0 3.0 0.00 0.00 0.00 52
20260901200516 87 68 1.0 2.0 0.00 0.00 0.00 50
20260901195516 88 68 1.0 3.0 0.00 0.00 0.00 48
20260901194517 88 0.0 2.0 0.00 0.00 0.00 50
20260901193516 88 68 1.0 3.0 0.00 0.00 0.00 49
20260901192537 88 225 1.0 3.0 0.00 0.00 0.00 48
20260901191537 89 0.0 4.0 0.00 0.00 0.00 46
20260901190537 89 338 1.0 3.0 0.00 0.00 0.00 46
20260901185516 90 23 1.0 3.0 0.00 0.00 0.00 46
20260901184536 90 203 2.0 3.0 0.00 0.00 0.00 45
20260901183516 89 90 2.0 4.0 0.00 0.00 0.00 47
20260901182515 89 68 2.0 3.0 0.00 0.00 0.00 47
20260901181516 88 90 1.0 3.0 0.00 0.00 0.00 46
20260901180516 87 90 1.0 3.0 0.00 0.00 0.00 46
20260901175516 87 90 1.0 3.0 0.00 0.00 0.00 47
20260901174516 88 225 1.0 6.0 0.00 0.00 0.00 45
20260901173515 87 225 1.0 4.0 0.00 0.00 0.00 47
20260901172535 87 180 1.0 4.0 0.00 0.00 0.00 48
20260901171516 87 203 2.0 4.0 0.00 0.00 0.00 49
20260901170515 86 180 2.0 7.0 0.00 0.00 0.00 49
20260901165517 86 248 1.0 6.0 0.00 0.00 0.00 52
20260901164558 85 113 1.0 4.0 0.00 0.00 0.00 57
20260901163518 84 45 1.0 4.0 0.00 0.00 0.00 58
20260901162517 83 270 1.0 4.0 0.00 0.00 0.00 59
20260901161517 82 68 2.0 4.0 0.00 0.00 0.00 60
20260901160518 81 0 1.0 3.0 0.00 0.00 0.00 62
20260901155517 80 0 1.0 3.0 0.00 0.00 0.00 64
20260901154517 79 315 1.0 3.0 0.00 0.00 0.00 65
20260901153538 78 315 1.0 3.0 0.00 0.00 0.00 67
20260901152517 78 0.0 1.0 0.00 0.00 0.00 68
20260901151517 77 90 2.0 3.0 0.00 0.00 0.00 69
20260901150518 76 293 1.0 3.0 0.00 0.00 0.00 73
20260901145517 75 90 1.0 2.0 0.00 0.00 0.00 75
20260901144518 74 68 1.0 3.0 0.00 0.00 0.00 80
20260901143517 72 45 1.0 4.0 0.00 0.00 0.00 84
20260901142517 70 225 1.0 3.0 0.00 0.00 0.00 88
20260901141517 69 68 1.0 4.0 0.00 0.00 0.00 91
20260901140517 68 0.0 2.0 0.00 0.00 0.00 92
20260901135516 67 0.0 0.0 0.00 0.00 0.00 93
20260901134516 67 0.0 1.0 0.00 0.00 0.00 92
20260901133516 67 0.0 2.0 0.00 0.00 0.00 93
20260901132517 67 0.0 0.0 0.00 0.00 0.00 93
20260901131557 66 0.0 2.0 0.00 0.00 0.00 93
20260901130517 66 0.0 0.0 0.00 0.00 0.00 93
20260901125516 66 0.0 0.0 0.00 0.00 0.00 93
20260901124516 66 0.0 0.0 0.00 0.00 0.00 92
20260901123517 66 0.0 1.0 0.00 0.00 0.00 92
20260901122516 65 0.0 1.0 0.00 0.00 0.00 92
20260901121516 65 0.0 0.0 0.00 0.00 0.00 92
20260901120516 65 0.0 0.0 0.00 0.00 0.00 92
20260901115517 65 0.0 0.0 0.00 0.00 0.00 91
20260901114516 65 0.0 0.0 0.00 0.00 0.00 91
20260901113516 65 0.0 0.0 0.00 0.00 0.00 91
20260901112516 65 0.0 0.0 0.00 0.00 0.00 90
20260901111517 65 0.0 0.0 0.00 0.00 0.00 90
20260901110517 65 0.0 0.0 0.00 0.00 0.00 90
20260901105516 65 0.0 0.0 0.00 0.00 0.00 90
20260901104516 65 0.0 0.0 0.00 0.00 0.00 90
20260901103516 65 0.0 0.0 0.00 0.00 0.00 89
20260901102517 65 0.0 0.0 0.00 0.00 0.00 89
20260901101536 65 0.0 0.0 0.00 0.00 0.00 89
20260901100516 66 0.0 0.0 0.00 0.00 0.00 90
20260901095516 66 0.0 0.0 0.00 0.00 0.00 89
20260901094515 66 0.0 0.0 0.00 0.00 0.00 89
20260901093516 66 0.0 0.0 0.00 0.00 0.00 89
20260901092536 66 0.0 0.0 0.00 0.00 0.00 89
20260901091536 66 0.0 0.0 0.00 0.00 0.00 89
20260901090515 67 0.0 0.0 0.00 0.00 0.00 89
20260901085515 67 0.0 0.0 0.00 0.00 0.00 89
20260901084518 67 0.0 0.0 0.00 0.00 0.00 89
20260901083538 67 0.0 0.0 0.00 0.00 0.00 88
20260901082517 67 0.0 0.0 0.00 0.00 0.00 88
20260901081517 67 0.0 0.0 0.00 0.00 0.00 87
20260901080558 68 0.0 0.0 0.00 0.00 0.00 88
20260901075517 68 0.0 0.0 0.00 0.00 0.00 87
20260901074518 68 0.0 0.0 0.00 0.00 0.00 87
20260901073517 68 0.0 0.0 0.00 0.00 0.00 87
20260901072517 68 0.0 0.0 0.00 0.00 0.00 87
20260901071558 69 0.0 0.0 0.00 0.00 0.00 86
20260901070517 69 0.0 0.0 0.00 0.00 0.00 85
20260901065518 69 0.0 0.0 0.00 0.00 0.00 85
20260901064517 69 0.0 0.0 0.00 0.00 0.00 84
20260901063517 70 0.0 0.0 0.00 0.00 0.00 84
20260901062517 70 0.0 0.0 0.00 0.00 0.00 84
20260901061517 70 0.0 0.0 0.00 0.00 0.00 84
20260901060537 70 0.0 0.0 0.00 0.00 0.00 84
20260901055517 71 0.0 0.0 0.00 0.00 0.00 83
20260901054537 71 0.0 0.0 0.00 0.00 0.00 83
20260901053517 71 0.0 0.0 0.00 0.00 0.00 83
20260901052537 72 0.0 0.0 0.00 0.00 0.00 83
20260901051537 72 0.0 0.0 0.00 0.00 0.00 82
20260901050516 72 0.0 0.0 0.00 0.00 0.00 80
20260901045516 72 0.0 0.0 0.00 0.00 0.00 80
20260901044516 73 0.0 0.0 0.00 0.00 0.00 80
20260901043537 73 0.0 0.0 0.00 0.00 0.00 79
20260901042516 73 0.0 0.0 0.00 0.00 0.00 78
20260901041516 74 0.0 0.0 0.00 0.00 0.00 78
20260901040516 74 0.0 0.0 0.00 0.00 0.00 78
20260901035536 74 0.0 0.0 0.00 0.00 0.00 77
20260901034515 75 0.0 0.0 0.00 0.00 0.00 76
20260901033516 75 0.0 0.0 0.00 0.00 0.00 75
20260901032515 76 0.0 0.0 0.00 0.00 0.00 75
20260901031536 76 0.0 0.0 0.00 0.00 0.00 74
20260901030515 76 0.0 0.0 0.00 0.00 0.00 73
20260901025515 77 0.0 0.0 0.00 0.00 0.00 72
20260901024536 77 0.0 1.0 0.00 0.00 0.00 71
20260901023517 78 0.0 1.0 0.00 0.00 0.00 68
20260901022537 79 0.0 0.0 0.00 0.00 0.00 68
20260901021517 79 0.0 0.0 0.00 0.00 0.00 67
20260901020517 80 0.0 0.0 0.00 0.00 0.00 65
20260901015538 80 0.0 0.0 0.00 0.00 0.00 64
20260901014517 81 0.0 1.0 0.00 0.00 0.00 63
20260901013517 82 68 1.0 2.0 0.00 0.00 0.00 61
20260901012518 82 0.0 1.0 0.00 0.00 0.00 60
20260901011517 83 68 1.0 2.0 0.00 0.00 0.00 60
20260901010517 84 0.0 3.0 0.00 0.00 0.00 58
20260901005517 84 68 1.0 4.0 0.00 0.00 0.00 56
20260901004517 85 68 1.0 3.0 0.00 0.00 0.00 54
20260901003517 86 68 1.0 3.0 0.00 0.00 0.00 50